Regional Weather Roundup
Issued by NWS

Home | Current Version | Previous Version | Graphics & Text | Print | Product List | Glossary On
Versions: 1 2 3 4 5 6 7 8 9 10 11 12 13 14 15 16 17 18 19 20 21 22 23 24 25 26 27 28 29 30 31 32 33 34 35 36 37 38 39 40 41 42 43 44 45 46 47 48 49 50
000
ASUS43 KBIS 031802
RWRND

NORTH DAKOTA REGIONAL WEATHER ROUNDUP
NATIONAL WEATHER SERVICE BISMARCK ND
100 PM CDT TUE MAY 03 2016

NOTE: "FAIR" INDICATES FEW OR NO CLOUDS BELOW 12,000 FEET WITH NO
SIGNIFICANT WEATHER AND/OR OBSTRUCTIONS TO VISIBILITY.


NDZ001>003-009>011-017-031900-
NORTHWEST NORTH DAKOTA

CITY           SKY/WX    TMP DP  RH WIND       PRES   REMARKS
WILLISTON      SUNNY     77  36  22 NW14G21   30.06S
6HR MIN TEMP:  35; 6HR MAX TEMP:  77;

MINOT          SUNNY     76  29  17 N17       30.01S
MINOT AFB      SUNNY     70  32  24 N16G24    30.00F
$$

NDZ018>021-031>035-040>046-031900-
SOUTHWEST NORTH DAKOTA

CITY           SKY/WX    TMP DP  RH WIND       PRES   REMARKS
BISMARCK       SUNNY     75  37  25 N20       29.98F
6HR MIN TEMP:  42; 6HR MAX TEMP:  75;

DICKINSON      SUNNY     73  34  23 N10       30.04F
GARRISON         N/A     72  35  25 N13G22    30.01S
6HR MIN TEMP:  41; 6HR MAX TEMP:  72;

HETTINGER ARPT SUNNY     72  31  22 N8        30.07F
$$

NDZ004>008-012>016-024-026-027-054-031900-
NORTHEAST NORTH DAKOTA

CITY           SKY/WX    TMP DP  RH WIND       PRES   REMARKS
GRAND FORKS    MOSUNNY   67  33  28 N24G35    29.88S
GRND FRKS AFB  SUNNY     66  29  25 N20G31    29.90S
DEVILS LAKE    SUNNY     64  29  26 N20G29    29.96S
$$

NDZ022-023-025-028>030-036>039-047>053-031900-
SOUTHEAST NORTH DAKOTA

CITY           SKY/WX    TMP DP  RH WIND       PRES   REMARKS
FARGO          SUNNY     71  28  20 N22G33    29.84S
6HR MIN TEMP:  48; 6HR MAX TEMP:  72;

JAMESTOWN      SUNNY     69  33  26 N23G32    29.92R
$$




USA.gov is the U.S. government's official web portal to all federal, state and local government web resources and services.